^^

New Milford Station Historical Data

Daily Summary for November 14, 2019 Units:  Metric    English   Both
Daily Weekly Monthly Yearly Custom
  High: Low: Average:
Temperature: 4.6 °C -7.8 °C -1.7 °C
Dew Point: -1 °C -9.2 °C -4.8 °C
Humidity: 92% 61% 80%
Wind Speed: 8km/h 0km/h 0.5km/h
Wind Gust: 16.1km/h - -
Wind- - WSW
Pressure: 1029.7 hPa 1022.9 hPa -
Precipitation: 0 mm    
Historical Graphs
 
 
Tabular Data for November 14, 2019
Time Temperature Dew Point Pressure Wind Wind Speed Wind Gust Humidity Rainfall Rate (Hourly) solar
00:00 -6.7 °C -9.1 °C 1028.7 hPa Calm     83% 0 mm WeatherDisplay:10.37 W/m2
00:05 -6.6 °C -8.9 °C 1028.7 hPa Calm     84% 0 mm WeatherDisplay:10.37 W/m2
00:10 -6.7 °C -8.9 °C 1028.7 hPa Calm     84% 0 mm WeatherDisplay:10.37 W/m2
00:15 -6.7 °C -9 °C 1028.7 hPa Calm     84% 0 mm WeatherDisplay:10.37 W/m2
00:20 -6.7 °C -8.9 °C 1028.7 hPa Calm     84% 0 mm WeatherDisplay:10.37 W/m2
00:25 -6.7 °C -8.8 °C 1028.7 hPa Calm     85% 0 mm WeatherDisplay:10.37 W/m2
00:30 -6.6 °C -8.7 °C 1028.7 hPa Calm     85% 0 mm WeatherDisplay:10.37 W/m2
00:35 -6.6 °C -8.7 °C 1028.7 hPa Calm     85% 0 mm WeatherDisplay:10.37 W/m2
00:40 -6.6 °C -8.7 °C 1028.7 hPa Calm     85% 0 mm WeatherDisplay:10.37 W/m2
00:45 -6.6 °C -8.8 °C 1028.7 hPa Calm     84% 0 mm WeatherDisplay:10.37 W/m2
00:50 -6.6 °C -8.7 °C 1028.7 hPa Calm     85% 0 mm WeatherDisplay:10.37 W/m2
00:55 -6.6 °C -8.7 °C 1028.7 hPa Calm     85% 0 mm WeatherDisplay:10.37 W/m2
01:00 -6.6 °C -8.7 °C 1028.7 hPa Calm     85% 0 mm WeatherDisplay:10.37 W/m2
01:05 -6.7 °C -8.8 °C 1028.7 hPa Calm     85% 0 mm WeatherDisplay:10.37 W/m2
01:10 -6.7 °C -8.8 °C 1028.7 hPa Calm     85% 0 mm WeatherDisplay:10.37 W/m2
01:15 -6.8 °C -8.8 °C 1028.7 hPa Calm     86% 0 mm WeatherDisplay:10.37 W/m2
01:20 -6.7 °C -8.7 °C 1029 hPa Calm     86% 0 mm WeatherDisplay:10.37 W/m2
01:25 -6.7 °C -8.7 °C 1029 hPa Calm     86% 0 mm WeatherDisplay:10.37 W/m2
01:30 -6.8 °C -8.7 °C 1029 hPa Calm     86% 0 mm WeatherDisplay:10.37 W/m2
01:35 -6.7 °C -8.7 °C 1029 hPa Calm     86% 0 mm WeatherDisplay:10.37 W/m2
01:40 -6.8 °C -8.8 °C 1029 hPa Calm     86% 0 mm WeatherDisplay:10.37 W/m2
01:45 -6.9 °C -8.8 °C 1029 hPa Calm     86% 0 mm WeatherDisplay:10.37 W/m2
01:50 -6.8 °C -8.6 °C 1029 hPa Calm     87% 0 mm WeatherDisplay:10.37 W/m2
01:55 -6.8 °C -8.6 °C 1029 hPa Calm     87% 0 mm WeatherDisplay:10.37 W/m2
02:00 -6.8 °C -8.6 °C 1029 hPa Calm     87% 0 mm WeatherDisplay:10.37 W/m2
02:05 -6.9 °C -8.6 °C 1029 hPa Calm     88% 0 mm WeatherDisplay:10.37 W/m2
02:10 -6.7 °C -8.4 °C 1029 hPa Calm     88% 0 mm WeatherDisplay:10.37 W/m2
02:15 -6.8 °C -8.6 °C 1029 hPa Calm     87% 0 mm WeatherDisplay:10.37 W/m2
02:20 -6.8 °C -8.6 °C 1029 hPa Calm     87% 0 mm WeatherDisplay:10.37 W/m2
02:25 -6.9 °C -8.9 °C 1029 hPa Calm     86% 0 mm WeatherDisplay:10.37 W/m2
02:30 -6.9 °C -8.9 °C 1028.7 hPa Calm     86% 0 mm WeatherDisplay:10.37 W/m2
02:35 -7.1 °C -8.8 °C 1028.7 hPa Calm     87% 0 mm WeatherDisplay:10.37 W/m2
02:40 -7.1 °C -8.7 °C 1029 hPa Calm   1.6 km/h 88% 0 mm WeatherDisplay:10.37 W/m2
02:45 -7.1 °C -8.7 °C 1028.7 hPa Calm     88% 0 mm WeatherDisplay:10.37 W/m2
02:50 -7.2 °C -8.8 °C 1028.7 hPa Calm     88% 0 mm WeatherDisplay:10.37 W/m2
02:55 -7.2 °C -8.9 °C 1028.7 hPa Calm     88% 0 mm WeatherDisplay:10.37 W/m2
03:00 -7.2 °C -8.8 °C 1028.7 hPa Calm     88% 0 mm WeatherDisplay:10.37 W/m2
03:05 -7.3 °C -9 °C 1028.7 hPa Calm     88% 0 mm WeatherDisplay:10.37 W/m2
03:10 -7.3 °C -9 °C 1028.7 hPa Calm     88% 0 mm WeatherDisplay:10.37 W/m2
03:15 -7.4 °C -9.1 °C 1028.7 hPa Calm     88% 0 mm WeatherDisplay:10.37 W/m2
03:20 -7.3 °C -8.9 °C 1029 hPa Calm     88% 0 mm WeatherDisplay:10.37 W/m2
03:25 -7.3 °C -9 °C 1028.7 hPa Calm     88% 0 mm WeatherDisplay:10.37 W/m2
03:30 -7.3 °C -9 °C 1028.7 hPa Calm     88% 0 mm WeatherDisplay:10.37 W/m2
03:35 -7.3 °C -8.9 °C 1028.7 hPa Calm     88% 0 mm WeatherDisplay:10.37 W/m2
03:40 -7.2 °C -8.7 °C 1028.7 hPa Calm     89% 0 mm WeatherDisplay:10.37 W/m2
03:45 -7.1 °C -8.8 °C 1028.7 hPa Calm     88% 0 mm WeatherDisplay:10.37 W/m2
03:50 -6.9 °C -8.6 °C 1028.7 hPa Calm     88% 0 mm WeatherDisplay:10.37 W/m2
03:55 -6.9 °C -8.5 °C 1028.7 hPa Calm     88% 0 mm WeatherDisplay:10.37 W/m2
04:00 -6.8 °C -8.7 °C 1028.7 hPa Calm     87% 0 mm WeatherDisplay:10.37 W/m2
04:05 -6.8 °C -8.6 °C 1029 hPa Calm     87% 0 mm WeatherDisplay:10.37 W/m2
04:10 -6.8 °C -8.6 °C 1029 hPa Calm     87% 0 mm WeatherDisplay:10.37 W/m2
04:15 -6.9 °C -8.8 °C 1028.7 hPa Calm     86% 0 mm WeatherDisplay:10.37 W/m2
04:20 -6.9 °C -8.9 °C 1028.7 hPa Calm     86% 0 mm WeatherDisplay:10.37 W/m2
04:25 -7.1 °C -8.8 °C 1028.7 hPa Calm     87% 0 mm WeatherDisplay:10.37 W/m2
04:30 -7.1 °C -8.9 °C 1028.7 hPa Calm     87% 0 mm WeatherDisplay:10.37 W/m2
04:35 -7.2 °C -8.8 °C 1028.7 hPa Calm     88% 0 mm WeatherDisplay:10.37 W/m2
04:40 -7.2 °C -8.8 °C 1028.7 hPa Calm     88% 0 mm WeatherDisplay:10.37 W/m2
04:45 -7.2 °C -8.7 °C 1029 hPa Calm     89% 0 mm WeatherDisplay:10.37 W/m2
04:50 -7.2 °C -8.8 °C 1029 hPa Calm     89% 0 mm WeatherDisplay:10.37 W/m2
04:55 -7.3 °C -9 °C 1028.7 hPa Calm     88% 0 mm WeatherDisplay:10.37 W/m2
05:00 -7.6 °C -9.1 °C 1028.7 hPa Calm     89% 0 mm WeatherDisplay:10.37 W/m2
05:05 -7.5 °C -9 °C 1029 hPa Calm     89% 0 mm WeatherDisplay:10.37 W/m2
05:10 -7.6 °C -9.1 °C 1028.7 hPa Calm     89% 0 mm WeatherDisplay:10.37 W/m2
05:15 -7.6 °C -8.9 °C 1028.7 hPa Calm     90% 0 mm WeatherDisplay:10.37 W/m2
05:20 -7.6 °C -9 °C 1028.7 hPa Calm     90% 0 mm WeatherDisplay:10.37 W/m2
05:25 -7.7 °C -9 °C 1028.7 hPa Calm     90% 0 mm WeatherDisplay:10.37 W/m2
05:30 -7.7 °C -9.1 °C 1028.7 hPa Calm     90% 0 mm WeatherDisplay:10.37 W/m2
05:35 -7.8 °C -9.1 °C 1028.7 hPa Calm     90% 0 mm WeatherDisplay:10.37 W/m2
05:40 -7.7 °C -9.1 °C 1028.7 hPa Calm     90% 0 mm WeatherDisplay:10.37 W/m2
05:45 -7.7 °C -9.1 °C 1028.7 hPa Calm     90% 0 mm WeatherDisplay:10.37 W/m2
05:50 -7.7 °C -9.1 °C 1028.7 hPa Calm     90% 0 mm WeatherDisplay:10.37 W/m2
05:55 -7.7 °C -9.1 °C 1028.7 hPa Calm     90% 0 mm WeatherDisplay:10.37 W/m2
06:00 -7.7 °C -9.1 °C 1028.7 hPa Calm     90% 0 mm WeatherDisplay:10.37 W/m2
06:05 -7.7 °C -9 °C 1028.7 hPa Calm     90% 0 mm WeatherDisplay:10.37 W/m2
06:10 -7.7 °C -9.1 °C 1028.7 hPa Calm     90% 0 mm WeatherDisplay:10.37 W/m2
06:15 -7.7 °C -9.1 °C 1028.7 hPa Calm     90% 0 mm WeatherDisplay:10.37 W/m2
06:20 -7.8 °C -9.1 °C 1029 hPa Calm     90% 0 mm WeatherDisplay:10.37 W/m2
06:25 -7.8 °C -9.2 °C 1029 hPa Calm     90% 0 mm WeatherDisplay:10.37 W/m2
06:30 -7.7 °C -8.9 °C 1029 hPa Calm     91% 0 mm WeatherDisplay:10.37 W/m2
06:35 -7.7 °C -9.1 °C 1029 hPa Calm     90% 0 mm WeatherDisplay:10.37 W/m2
06:40 -7.7 °C -8.9 °C 1028.7 hPa Calm     91% 0 mm WeatherDisplay:10.37 W/m2
06:45 -7.7 °C -8.9 °C 1028.7 hPa Calm     91% 0 mm WeatherDisplay:10.37 W/m2
06:50 -7.7 °C -8.7 °C 1028.7 hPa Calm     92% 0 mm WeatherDisplay:10.37 W/m2
06:55 -7.6 °C -8.7 °C 1029 hPa Calm     91% 0 mm WeatherDisplay:10.37 W/m2
07:00 -7.4 °C -8.7 °C 1029 hPa Calm     91% 0 mm WeatherDisplay:10.37 W/m2
07:05 -7.4 °C -8.7 °C 1029 hPa Calm     91% 0 mm WeatherDisplay:10.37 W/m2
07:10 -7.4 °C -8.6 °C 1029 hPa Calm     91% 0 mm WeatherDisplay:10.37 W/m2
07:15 -7.3 °C -8.5 °C 1029 hPa Calm     91% 0 mm WeatherDisplay:10.37 W/m2
07:20 -7.2 °C -8.4 °C 1029.3 hPa Calm     91% 0 mm WeatherDisplay:10.37 W/m2
07:25 -7.1 °C -8.3 °C 1029.3 hPa Calm     91% 0 mm WeatherDisplay:10.37 W/m2
07:30 -6.9 °C -8.2 °C 1029 hPa Calm     91% 0 mm WeatherDisplay:10.37 W/m2
07:35 -6.8 °C -8.2 °C 1029.3 hPa Calm     90% 0 mm WeatherDisplay:10.37 W/m2
07:40 -6.7 °C -8.1 °C 1029.3 hPa Calm     90% 0 mm WeatherDisplay:10.37 W/m2
07:45 -6.4 °C -7.9 °C 1029.3 hPa Calm     89% 0 mm WeatherDisplay:10.37 W/m2
07:50 -6.2 °C -7.6 °C 1029 hPa Calm     90% 0 mm WeatherDisplay:10.37 W/m2
07:55 -6.1 °C -7.6 °C 1029 hPa Calm     89% 0 mm WeatherDisplay:10.37 W/m2
08:00 -5.9 °C -7.5 °C 1029.3 hPa Calm     89% 0 mm WeatherDisplay:10.37 W/m2
08:05 -5.8 °C -7.5 °C 1029.3 hPa Calm     88% 0 mm WeatherDisplay:10.37 W/m2
08:10 -5.5 °C -7.2 °C 1029.7 hPa Calm     88% 0 mm WeatherDisplay:10.37 W/m2
08:15 -5.2 °C -7.1 °C 1029.7 hPa Calm     87% 0 mm WeatherDisplay:10.37 W/m2
08:20 -4.9 °C -6.9 °C 1029.7 hPa Calm     86% 0 mm WeatherDisplay:10.37 W/m2
08:25 -4.7 °C -7.2 °C 1029.3 hPa Calm     83% 0 mm WeatherDisplay:10.37 W/m2
08:30 -4.6 °C -7.6 °C 1029.3 hPa Calm     79% 0 mm WeatherDisplay:10.37 W/m2
08:35 -4.2 °C -7.5 °C 1029.3 hPa Calm     78% 0 mm WeatherDisplay:10.37 W/m2
08:40 -4.1 °C -7.5 °C 1029.3 hPa Calm     77% 0 mm WeatherDisplay:10.37 W/m2
08:45 -3.9 °C -7.2 °C 1029 hPa Calm     78% 0 mm WeatherDisplay:10.37 W/m2
08:50 -3.7 °C -7 °C 1029 hPa Calm     78% 0 mm WeatherDisplay:10.37 W/m2
08:55 -3.7 °C -6.9 °C 1029.3 hPa Calm     78% 0 mm WeatherDisplay:10.37 W/m2
09:00 -3.4 °C -6.7 °C 1029 hPa Calm     78% 0 mm WeatherDisplay:10.37 W/m2
09:05 -3.3 °C -6.8 °C 1029.3 hPa Calm     77% 0 mm WeatherDisplay:10.37 W/m2
09:10 -3.1 °C -6.6 °C 1029 hPa Calm     77% 0 mm WeatherDisplay:10.37 W/m2
09:15 -2.9 °C -6.4 °C 1029.3 hPa Calm     77% 0 mm WeatherDisplay:10.37 W/m2
09:20 -2.8 °C -6.4 °C 1029 hPa Calm     76% 0 mm WeatherDisplay:10.37 W/m2
09:25 -2.9 °C -7.2 °C 1029.3 hPa SE 1.6 km/h 4.8 km/h 72% 0 mm WeatherDisplay:10.37 W/m2
09:30 -2.6 °C -6.8 °C 1029 hPa Calm   1.6 km/h 73% 0 mm WeatherDisplay:10.37 W/m2
09:35 -2.3 °C -6.4 °C 1029 hPa Calm     73% 0 mm WeatherDisplay:10.37 W/m2
09:40 -2.1 °C -6.3 °C 1029 hPa Calm     73% 0 mm WeatherDisplay:10.37 W/m2
09:45 -1.8 °C -6 °C 1029 hPa Calm     73% 0 mm WeatherDisplay:10.37 W/m2
09:50 -1.7 °C -6.2 °C 1029 hPa Calm   1.6 km/h 71% 0 mm WeatherDisplay:10.37 W/m2
09:55 -1.5 °C -5.9 °C 1029 hPa Calm     72% 0 mm WeatherDisplay:10.37 W/m2
10:00 -1.3 °C -5.7 °C 1029 hPa Calm     72% 0 mm WeatherDisplay:10.37 W/m2
10:05 -1.2 °C -5.6 °C 1029 hPa Calm   6.4 km/h 72% 0 mm WeatherDisplay:10.37 W/m2
10:10 -0.8 °C -5.3 °C 1029 hPa Calm   4.8 km/h 72% 0 mm WeatherDisplay:10.37 W/m2
10:15 -0.5 °C -4.9 °C 1028.7 hPa Calm     72% 0 mm WeatherDisplay:10.37 W/m2
10:20 -0.1 °C -4.6 °C 1028.7 hPa Calm     72% 0 mm WeatherDisplay:10.37 W/m2
10:25 0.3 °C -4 °C 1028.3 hPa Calm     73% 0 mm WeatherDisplay:10.37 W/m2
10:30 0.7 °C -3.9 °C 1028.3 hPa WNW 3.2 km/h 8 km/h 71% 0 mm WeatherDisplay:10.37 W/m2
10:35 0.9 °C -3.9 °C 1028.3 hPa NW 3.2 km/h 11.3 km/h 70% 0 mm WeatherDisplay:10.37 W/m2
10:40 1 °C -3.7 °C 1028 hPa NW 3.2 km/h 11.3 km/h 71% 0 mm WeatherDisplay:10.37 W/m2
10:45 1.1 °C -3.4 °C 1028 hPa NW 1.6 km/h 8 km/h 72% 0 mm WeatherDisplay:10.37 W/m2
10:50 1.2 °C -3.3 °C 1028 hPa Calm   3.2 km/h 72% 0 mm WeatherDisplay:10.37 W/m2
10:55 1.4 °C -3.1 °C 1028 hPa WNW 1.6 km/h 3.2 km/h 72% 0 mm WeatherDisplay:10.37 W/m2
11:00 1.4 °C -3.1 °C 1028 hPa Calm   1.6 km/h 72% 0 mm WeatherDisplay:10.37 W/m2
11:05 1.8 °C -2.7 °C 1028 hPa WNW 1.6 km/h 6.4 km/h 72% 0 mm WeatherDisplay:10.37 W/m2
11:10 1.9 °C -3.3 °C 1027.7 hPa West 3.2 km/h 11.3 km/h 68% 0 mm WeatherDisplay:10.37 W/m2
11:15 2.1 °C -2.8 °C 1027.3 hPa Calm   3.2 km/h 70% 0 mm WeatherDisplay:10.37 W/m2
11:20 2.3 °C -2.7 °C 1027.3 hPa WSW 1.6 km/h 6.4 km/h 70% 0 mm WeatherDisplay:10.37 W/m2
11:25 2.4 °C -2.4 °C 1027.3 hPa SW 1.6 km/h 4.8 km/h 70% 0 mm WeatherDisplay:10.37 W/m2
11:30 2.7 °C -2.7 °C 1027.3 hPa WSW 3.2 km/h 9.7 km/h 68% 0 mm WeatherDisplay:10.37 W/m2
11:35 2.7 °C -2.7 °C 1027.3 hPa Calm   4.8 km/h 68% 0 mm WeatherDisplay:10.37 W/m2
11:40 2.8 °C -2.7 °C 1027.3 hPa Calm   4.8 km/h 67% 0 mm WeatherDisplay:10.37 W/m2
11:45 2.8 °C -2.9 °C 1027 hPa West 1.6 km/h 3.2 km/h 66% 0 mm WeatherDisplay:10.37 W/m2
11:50 2.9 °C -2.7 °C 1027 hPa Calm   6.4 km/h 67% 0 mm WeatherDisplay:10.37 W/m2
11:55 2.8 °C -2.7 °C 1026.6 hPa Calm   4.8 km/h 67% 0 mm WeatherDisplay:10.37 W/m2
12:00 3 °C -2.3 °C 1026.6 hPa West 1.6 km/h 8 km/h 68% 0 mm WeatherDisplay:10.37 W/m2
12:05 3.2 °C -2.1 °C 1026.6 hPa West 1.6 km/h 4.8 km/h 68% 0 mm WeatherDisplay:10.37 W/m2
12:10 3.5 °C -2.5 °C 1026.6 hPa West 1.6 km/h 6.4 km/h 65% 0 mm WeatherDisplay:10.37 W/m2
12:15 3.4 °C -2.6 °C 1026.6 hPa WSW 8 km/h 12.9 km/h 65% 0 mm WeatherDisplay:10.37 W/m2
12:20 3.5 °C -2.3 °C 1026.6 hPa SW 8 km/h 16.1 km/h 66% 0 mm WeatherDisplay:10.37 W/m2
12:25 3.7 °C -2.3 °C 1026.6 hPa SW 4.8 km/h 14.5 km/h 65% 0 mm WeatherDisplay:10.37 W/m2
12:30 3.9 °C -2.3 °C 1026.6 hPa WSW 3.2 km/h 14.5 km/h 64% 0 mm WeatherDisplay:10.37 W/m2
12:35 4.1 °C -1.9 °C 1026.6 hPa SW 4.8 km/h 9.7 km/h 65% 0 mm WeatherDisplay:10.37 W/m2
12:40 4.3 °C -1.9 °C 1026.6 hPa WSW 8 km/h 14.5 km/h 64% 0 mm WeatherDisplay:10.37 W/m2
12:45 4.2 °C -2 °C 1026.3 hPa WSW 3.2 km/h 12.9 km/h 64% 0 mm WeatherDisplay:10.37 W/m2
12:50 4.2 °C -1.8 °C 1026.3 hPa WSW 3.2 km/h 11.3 km/h 65% 0 mm WeatherDisplay:10.37 W/m2
12:55 4.2 °C -1.8 °C 1026.3 hPa WSW 3.2 km/h 14.5 km/h 65% 0 mm WeatherDisplay:10.37 W/m2
13:00 4.2 °C -1.7 °C 1026.3 hPa WSW 3.2 km/h 14.5 km/h 66% 0 mm WeatherDisplay:10.37 W/m2
13:05 4.3 °C -1.6 °C 1026.3 hPa Calm   11.3 km/h 66% 0 mm WeatherDisplay:10.37 W/m2
13:10 4.2 °C -2.2 °C 1026.3 hPa WSW 3.2 km/h 6.4 km/h 63% 0 mm WeatherDisplay:10.37 W/m2
13:15 4.4 °C -1.8 °C 1026.3 hPa WSW 3.2 km/h 6.4 km/h 64% 0 mm WeatherDisplay:10.37 W/m2
13:20 4.3 °C -1.7 °C 1026 hPa West 3.2 km/h 8 km/h 65% 0 mm WeatherDisplay:10.37 W/m2
13:25 4.2 °C -1.8 °C 1026 hPa WSW 3.2 km/h 14.5 km/h 65% 0 mm WeatherDisplay:10.37 W/m2
13:30 4.2 °C -1.6 °C 1026 hPa SW 1.6 km/h 6.4 km/h 66% 0 mm WeatherDisplay:10.37 W/m2
13:35 4.3 °C -1.9 °C 1026 hPa Calm   4.8 km/h 64% 0 mm WeatherDisplay:10.37 W/m2
13:40 4.3 °C -1.5 °C 1025.6 hPa NNW 1.6 km/h 6.4 km/h 66% 0 mm WeatherDisplay:10.37 W/m2
13:45 4.4 °C -2.1 °C 1025.6 hPa WNW 3.2 km/h 9.7 km/h 63% 0 mm WeatherDisplay:10.37 W/m2
13:50 4.5 °C -1.8 °C 1025.6 hPa West 3.2 km/h 8 km/h 64% 0 mm WeatherDisplay:10.37 W/m2
13:55 4.6 °C -1.6 °C 1025.6 hPa WSW 3.2 km/h 8 km/h 64% 0 mm WeatherDisplay:10.37 W/m2
14:00 4.6 °C -1.7 °C 1025.6 hPa Calm   4.8 km/h 64% 0 mm WeatherDisplay:10.37 W/m2
14:05 4.6 °C -1.8 °C 1025.6 hPa South 1.6 km/h 4.8 km/h 63% 0 mm WeatherDisplay:10.37 W/m2
14:10 4.5 °C -1.5 °C 1025.6 hPa West 1.6 km/h 4.8 km/h 65% 0 mm WeatherDisplay:10.37 W/m2
14:15 4.5 °C -1.7 °C 1025.3 hPa WSW 1.6 km/h 8 km/h 64% 0 mm WeatherDisplay:10.37 W/m2
14:20 4.5 °C -1.9 °C 1025.6 hPa SW 1.6 km/h 4.8 km/h 63% 0 mm WeatherDisplay:10.37 W/m2
14:25 4.6 °C -1 °C 1025.6 hPa Calm   8 km/h 67% 0 mm WeatherDisplay:10.37 W/m2
14:30 4.5 °C -1.7 °C 1026 hPa Calm   8 km/h 64% 0 mm WeatherDisplay:10.37 W/m2
14:35 4.5 °C -1.6 °C 1025.6 hPa SW 3.2 km/h 8 km/h 65% 0 mm WeatherDisplay:10.37 W/m2
14:40 4.4 °C -2.1 °C 1026 hPa WSW 3.2 km/h 8 km/h 63% 0 mm WeatherDisplay:10.37 W/m2
14:45 4.3 °C -2.6 °C 1025.6 hPa Calm   9.7 km/h 61% 0 mm WeatherDisplay:10.37 W/m2
14:50 4.3 °C -2.3 °C 1025.6 hPa Calm   4.8 km/h 62% 0 mm WeatherDisplay:10.37 W/m2
14:55 4.2 °C -1.9 °C 1025.6 hPa SSW 1.6 km/h 3.2 km/h 64% 0 mm WeatherDisplay:10.37 W/m2
15:00 4.2 °C -2.1 °C 1025.6 hPa South 1.6 km/h 4.8 km/h 64% 0 mm WeatherDisplay:10.37 W/m2
15:05 4.1 °C -1.9 °C 1025.6 hPa Calm   3.2 km/h 65% 0 mm WeatherDisplay:10.37 W/m2
15:10 4 °C -2.2 °C 1025.6 hPa Calm   3.2 km/h 64% 0 mm WeatherDisplay:10.37 W/m2
15:15 3.9 °C -2.1 °C 1025.3 hPa Calm   1.6 km/h 65% 0 mm WeatherDisplay:10.37 W/m2
15:20 3.9 °C -1.7 °C 1025.6 hPa Calm   1.6 km/h 67% 0 mm WeatherDisplay:10.37 W/m2
15:25 3.8 °C -1.6 °C 1025.6 hPa Calm     68% 0 mm WeatherDisplay:10.37 W/m2
15:30 3.7 °C -2 °C 1025.6 hPa Calm   4.8 km/h 66% 0 mm WeatherDisplay:10.37 W/m2
15:35 3.8 °C -1.7 °C 1025.6 hPa Calm     67% 0 mm WeatherDisplay:10.37 W/m2
15:40 3.8 °C -1.5 °C 1025.6 hPa Calm     68% 0 mm WeatherDisplay:10.37 W/m2
15:45 3.8 °C -2.4 °C 1025.6 hPa Calm   3.2 km/h 64% 0 mm WeatherDisplay:10.37 W/m2
15:50 3.8 °C -1.9 °C 1025.6 hPa Calm   1.6 km/h 66% 0 mm WeatherDisplay:10.37 W/m2
15:55 3.7 °C -1.8 °C 1025.6 hPa Calm     67% 0 mm WeatherDisplay:10.37 W/m2
16:00 3.6 °C -1.9 °C 1025.6 hPa Calm     67% 0 mm WeatherDisplay:10.37 W/m2
16:05 3.6 °C -1.8 °C 1025.6 hPa Calm     68% 0 mm WeatherDisplay:10.37 W/m2
16:10 3.4 °C -1.6 °C 1025.6 hPa Calm     70% 0 mm WeatherDisplay:10.37 W/m2
16:15 3.2 °C -1.7 °C 1025.3 hPa Calm     70% 0 mm WeatherDisplay:10.37 W/m2
16:20 3.1 °C -1.9 °C 1025.3 hPa Calm     70% 0 mm WeatherDisplay:10.37 W/m2
16:25 2.9 °C -1.8 °C 1025.3 hPa Calm     71% 0 mm WeatherDisplay:10.37 W/m2
16:30 2.8 °C -1.8 °C 1024.9 hPa Calm   1.6 km/h 72% 0 mm WeatherDisplay:10.37 W/m2
16:35 2.7 °C -1.6 °C 1024.9 hPa Calm   1.6 km/h 73% 0 mm WeatherDisplay:10.37 W/m2
16:40 2.6 °C -1.6 °C 1024.9 hPa Calm     74% 0 mm WeatherDisplay:10.37 W/m2
16:45 2.5 °C -1.5 °C 1024.9 hPa Calm     75% 0 mm WeatherDisplay:10.37 W/m2
16:50 2.4 °C -1.6 °C 1024.9 hPa Calm     75% 0 mm WeatherDisplay:10.37 W/m2
16:55 2.3 °C -1.7 °C 1024.6 hPa Calm     75% 0 mm WeatherDisplay:10.37 W/m2
17:00 2.1 °C -1.7 °C 1024.6 hPa Calm     76% 0 mm WeatherDisplay:10.37 W/m2
17:05 2 °C -1.8 °C 1024.6 hPa Calm     76% 0 mm WeatherDisplay:10.37 W/m2
17:10 1.8 °C -1.8 °C 1024.6 hPa Calm     77% 0 mm WeatherDisplay:10.37 W/m2
17:15 1.7 °C -1.9 °C 1024.6 hPa Calm     77% 0 mm WeatherDisplay:10.37 W/m2
17:20 1.6 °C -1.8 °C 1024.9 hPa Calm     78% 0 mm WeatherDisplay:10.37 W/m2
17:25 1.5 °C -1.9 °C 1024.9 hPa Calm     78% 0 mm WeatherDisplay:10.37 W/m2
17:30 1.4 °C -2.1 °C 1024.9 hPa Calm     78% 0 mm WeatherDisplay:10.37 W/m2
17:35 1.2 °C -2.2 °C 1024.9 hPa Calm     78% 0 mm WeatherDisplay:10.37 W/m2
17:40 1.1 °C -2.2 °C 1024.9 hPa Calm     79% 0 mm WeatherDisplay:10.37 W/m2
17:45 1 °C -2.1 °C 1024.9 hPa Calm     80% 0 mm WeatherDisplay:10.37 W/m2
17:50 0.9 °C -2.2 °C 1024.9 hPa Calm     80% 0 mm WeatherDisplay:10.37 W/m2
17:55 0.8 °C -2.1 °C 1024.9 hPa Calm     81% 0 mm WeatherDisplay:10.37 W/m2
18:00 0.8 °C -1.9 °C 1024.9 hPa Calm   1.6 km/h 82% 0 mm WeatherDisplay:10.37 W/m2
18:05 0.8 °C -1.9 °C 1024.9 hPa Calm   3.2 km/h 82% 0 mm WeatherDisplay:10.37 W/m2
18:10 0.7 °C -2 °C 1024.9 hPa Calm   3.2 km/h 82% 0 mm WeatherDisplay:10.37 W/m2
18:15 0.7 °C -2 °C 1024.9 hPa Calm     82% 0 mm WeatherDisplay:10.37 W/m2
18:20 0.7 °C -2 °C 1024.9 hPa Calm     82% 0 mm WeatherDisplay:10.37 W/m2
18:25 0.7 °C -2 °C 1024.9 hPa Calm     82% 0 mm WeatherDisplay:10.37 W/m2
18:30 0.7 °C -2 °C 1024.6 hPa Calm     82% 0 mm WeatherDisplay:10.37 W/m2
18:35 0.7 °C -2 °C 1024.6 hPa Calm     82% 0 mm WeatherDisplay:10.37 W/m2
18:40 0.7 °C -2 °C 1024.6 hPa Calm     82% 0 mm WeatherDisplay:10.37 W/m2
18:45 0.7 °C -1.9 °C 1024.6 hPa Calm     83% 0 mm WeatherDisplay:10.37 W/m2
18:50 0.7 °C -1.7 °C 1024.6 hPa Calm     84% 0 mm WeatherDisplay:10.37 W/m2
18:55 0.7 °C -1.7 °C 1024.6 hPa Calm     84% 0 mm WeatherDisplay:10.37 W/m2
19:00 0.7 °C -1.7 °C 1024.6 hPa Calm     84% 0 mm WeatherDisplay:10.37 W/m2
19:05 0.7 °C -1.7 °C 1024.6 hPa Calm     84% 0 mm WeatherDisplay:10.37 W/m2
19:10 0.6 °C -1.9 °C 1024.6 hPa Calm     83% 0 mm WeatherDisplay:10.37 W/m2
19:15 0.7 °C -1.8 °C 1024.3 hPa Calm     84% 0 mm WeatherDisplay:10.37 W/m2
19:20 0.6 °C -1.8 °C 1024.3 hPa Calm     84% 0 mm WeatherDisplay:10.37 W/m2
19:25 0.6 °C -1.8 °C 1024.3 hPa Calm     84% 0 mm WeatherDisplay:10.37 W/m2
19:30 0.6 °C -1.8 °C 1024.3 hPa Calm     84% 0 mm WeatherDisplay:10.37 W/m2
19:35 0.5 °C -1.9 °C 1024.3 hPa Calm     84% 0 mm WeatherDisplay:10.37 W/m2
19:40 0.4 °C -1.9 °C 1024.3 hPa Calm     84% 0 mm WeatherDisplay:10.37 W/m2
19:45 0.4 °C -1.9 °C 1023.9 hPa Calm     84% 0 mm WeatherDisplay:10.37 W/m2
19:50 0.4 °C -1.8 °C 1023.9 hPa Calm     85% 0 mm WeatherDisplay:10.37 W/m2
19:55 0.4 °C -2 °C 1023.9 hPa Calm     84% 0 mm WeatherDisplay:10.37 W/m2
20:00 0.4 °C -1.8 °C 1023.9 hPa Calm     85% 0 mm WeatherDisplay:10.37 W/m2
20:05 0.4 °C -2 °C 1023.6 hPa West 1.6 km/h 3.2 km/h 84% 0 mm WeatherDisplay:10.37 W/m2
20:10 0.4 °C -1.8 °C 1023.6 hPa Calm   1.6 km/h 85% 0 mm WeatherDisplay:10.37 W/m2
20:15 0.4 °C -1.8 °C 1023.6 hPa Calm     85% 0 mm WeatherDisplay:10.37 W/m2
20:20 0.4 °C -1.8 °C 1023.6 hPa Calm     85% 0 mm WeatherDisplay:10.37 W/m2
20:25 0.4 °C -1.8 °C 1023.6 hPa Calm     85% 0 mm WeatherDisplay:10.37 W/m2
20:30 0.4 °C -1.8 °C 1023.6 hPa Calm     85% 0 mm WeatherDisplay:10.37 W/m2
20:35 0.4 °C -1.8 °C 1023.6 hPa Calm     85% 0 mm WeatherDisplay:10.37 W/m2
20:40 0.4 °C -1.8 °C 1023.6 hPa Calm     85% 0 mm WeatherDisplay:10.37 W/m2
20:45 0.4 °C -1.8 °C 1023.6 hPa Calm     85% 0 mm WeatherDisplay:10.37 W/m2
20:50 0.3 °C -1.9 °C 1023.6 hPa Calm     85% 0 mm WeatherDisplay:10.37 W/m2
20:55 0.4 °C -1.8 °C 1023.6 hPa Calm     85% 0 mm WeatherDisplay:10.37 W/m2
21:00 0.4 °C -1.7 °C 1023.6 hPa Calm     86% 0 mm WeatherDisplay:10.37 W/m2
21:05 0.4 °C -1.8 °C 1023.9 hPa Calm     85% 0 mm WeatherDisplay:10.37 W/m2
21:10 0.4 °C -1.8 °C 1023.9 hPa Calm     85% 0 mm WeatherDisplay:10.37 W/m2
21:15 0.4 °C -1.7 °C 1023.9 hPa Calm     86% 0 mm WeatherDisplay:10.37 W/m2
21:20 0.4 °C -1.7 °C 1023.9 hPa Calm     86% 0 mm WeatherDisplay:10.37 W/m2
21:25 0.3 °C -1.7 °C 1023.9 hPa Calm     86% 0 mm WeatherDisplay:10.37 W/m2
21:30 0.3 °C -1.8 °C 1023.9 hPa Calm     86% 0 mm WeatherDisplay:10.37 W/m2
21:35 0.2 °C -1.8 °C 1023.6 hPa Calm     86% 0 mm WeatherDisplay:10.37 W/m2
21:40 0.1 °C -1.9 °C 1023.6 hPa Calm     86% 0 mm WeatherDisplay:10.37 W/m2
21:45 0.1 °C -2 °C 1023.6 hPa Calm     86% 0 mm WeatherDisplay:10.37 W/m2
21:50 -0.1 °C -2.1 °C 1023.6 hPa Calm     86% 0 mm WeatherDisplay:10.37 W/m2
21:55 -0.2 °C -2.1 °C 1023.6 hPa Calm     87% 0 mm WeatherDisplay:10.37 W/m2
22:00 -0.3 °C -2.2 °C 1023.6 hPa Calm     87% 0 mm WeatherDisplay:10.37 W/m2
22:05 -0.3 °C -2.1 °C 1023.6 hPa Calm     88% 0 mm WeatherDisplay:10.37 W/m2
22:10 -0.4 °C -2.1 °C 1023.6 hPa Calm     88% 0 mm WeatherDisplay:10.37 W/m2
22:15 -0.4 °C -2.2 °C 1023.6 hPa Calm     88% 0 mm WeatherDisplay:10.37 W/m2
22:20 -0.5 °C -2.2 °C 1023.2 hPa Calm     88% 0 mm WeatherDisplay:10.37 W/m2
22:25 -0.6 °C -2.3 °C 1023.6 hPa Calm     88% 0 mm WeatherDisplay:10.37 W/m2
22:30 -0.7 °C -2.2 °C 1023.6 hPa Calm     89% 0 mm WeatherDisplay:10.37 W/m2
22:35 -0.7 °C -2.3 °C 1023.6 hPa Calm     89% 0 mm WeatherDisplay:10.37 W/m2
22:40 -0.8 °C -2.3 °C 1023.6 hPa Calm     89% 0 mm WeatherDisplay:10.37 W/m2
22:45 -0.8 °C -2.3 °C 1023.2 hPa Calm     90% 0 mm WeatherDisplay:10.37 W/m2
22:50 -0.9 °C -2.3 °C 1023.2 hPa Calm     90% 0 mm WeatherDisplay:10.37 W/m2
22:55 -1 °C -2.4 °C 1023.2 hPa Calm     90% 0 mm WeatherDisplay:10.37 W/m2
23:00 -1.1 °C -2.5 °C 1023.2 hPa Calm     90% 0 mm WeatherDisplay:10.37 W/m2
23:05 -1.1 °C -2.6 °C 1023.2 hPa Calm     90% 0 mm WeatherDisplay:10.37 W/m2
23:10 -1.2 °C -2.6 °C 1023.2 hPa Calm     90% 0 mm WeatherDisplay:10.37 W/m2
23:15 -1.2 °C -2.7 °C 1023.2 hPa Calm     90% 0 mm WeatherDisplay:10.37 W/m2
23:20 -1.3 °C -2.6 °C 1023.2 hPa Calm     91% 0 mm WeatherDisplay:10.37 W/m2
23:25 -1.3 °C -2.6 °C 1023.2 hPa Calm     91% 0 mm WeatherDisplay:10.37 W/m2
23:30 -1.4 °C -2.7 °C 1023.2 hPa Calm   3.2 km/h 91% 0 mm WeatherDisplay:10.37 W/m2
23:35 -1.4 °C -2.7 °C 1023.2 hPa Calm     91% 0 mm WeatherDisplay:10.37 W/m2
23:40 -1.4 °C -2.7 °C 1023.2 hPa Calm     91% 0 mm WeatherDisplay:10.37 W/m2
23:45 -1.5 °C -2.8 °C 1023.2 hPa Calm     91% 0 mm WeatherDisplay:10.37 W/m2
23:50 -1.6 °C -2.8 °C 1022.9 hPa Calm     91% 0 mm WeatherDisplay:10.37 W/m2
23:55 -1.6 °C -2.9 °C 1022.9 hPa Calm     91% 0 mm WeatherDisplay:10.37 W/m2
Compliments of Weather Underground - 2.5 mb